Davenport, IA

1:13 PM CDT on October 21, 2017 (GMT -0500)
Davenport Municipal

Weather History for KDVN - June, 2013

Change the Weather History Date:

Thursday, June 27, 2013

  Actual Average Record
Temperature  
Mean Temperature 78 °F 73 °F  
Max Temperature 88 °F 83 °F 97 °F (1971)
Min Temperature 67 °F 62 °F 45 °F (2017)
Degree Days  
Heating Degree Days 0 0  
Month to date heating degree days 24 22  
Since 1 June heating degree days 24 22  
Since 1 July heating degree days 6567 6509  
Cooling Degree Days 13 8  
Month to date cooling degree days 179 158  
Year to date cooling degree days 274 219  
Since 1 June cooling degree days 179 158  
Growing Degree Days 27 (Base 50)    
Moisture  
Dew Point 68 °F    
Average Humidity 74    
Maximum Humidity 93    
Minimum Humidity 55    
Precipitation  
Precipitation 0.00 in 0.13 in 0.83 in (1952)
Month to date precipitation 3.50 3.84  
Year to date precipitation 24.47 16.65  
Snow  
Snow 0.00 in - - ()
Month to date snowfall 0.0  
Since 1 June snowfall 0.0  
Snow Depth 0.00 in    
Sea Level Pressure  
Sea Level Pressure 29.81 in    
Wind  
Wind Speed 10 mph (WNW)    
Max Wind Speed 26 mph    
Max Gust Speed 30 mph    
Visibility 10 miles    
Events      
T = Trace of Precipitation, MM = Missing Value Source: NWS Daily Summary

Daily Weather History Graph

Daily Weather History Graph

Search for Another Location

Airport or City:

Trip Planner

Search our weather history database for the weather conditions in past years. The results will help you decide how hot, cold, wet, or windy it might be!

Date:

Astronomy

Jun. 27, 2013 Rise Set
Actual Time 5:30 AM CDT 8:40 PM CDT
Civil Twilight 4:56 AM CDT 9:14 PM CDT
Nautical Twilight 4:12 AM CDT 9:58 PM CDT
Astronomical Twilight 3:19 AM CDT 10:50 PM CDT
Moon 11:33 PM CDT (6/27) 10:35 AM CDT (6/27)
Length of Visible Light 16h 18m
Length of Day
15h 10m
Waning Gibbous, 76% of the Moon is Illuminated
Jun 27
Waning Gibbous
Jun 29
Last Quarter
Jul 8
New
Jul 15
First Quarter
Jul 22
Full

Hourly Weather History & Observations

Time (CDT) Temp. Heat Index Dew Point Humidity Pressure Visibility Wind Dir Wind Speed Gust Speed Precip Events Conditions
12:52 AM 75.9 °F - 72.0 °F 87% 29.78 in 8.0 mi NW 5.8 mph - N/A   Clear
1:52 AM 73.9 °F - 71.1 °F 91% 29.79 in 8.0 mi WNW 6.9 mph - N/A   Clear
2:52 AM 72.0 °F - 69.1 °F 91% 29.80 in 10.0 mi WNW 5.8 mph - N/A   Clear
3:52 AM 71.1 °F - 68.0 °F 90% 29.81 in 9.0 mi WNW 8.1 mph - N/A   Clear
4:52 AM 70.0 °F - 66.9 °F 90% 29.81 in 10.0 mi WNW 5.8 mph - N/A   Clear
5:52 AM 68.0 °F - 66.0 °F 93% 29.82 in 7.0 mi West 5.8 mph - 0.01 in   Clear
6:52 AM 71.1 °F - 66.9 °F 87% 29.84 in 9.0 mi West 5.8 mph - N/A   Clear
7:52 AM 73.9 °F - 68.0 °F 82% 29.85 in 10.0 mi WNW 8.1 mph - N/A   Clear
8:52 AM 78.1 °F - 69.1 °F 74% 29.85 in 10.0 mi NW 5.8 mph - N/A   Clear
9:52 AM 81.0 °F 84.4 °F 70.0 °F 69% 29.84 in 10.0 mi WNW 5.8 mph - N/A   Clear
10:52 AM 82.9 °F 87.0 °F 70.0 °F 65% 29.84 in 10.0 mi West 10.4 mph - N/A   Clear
11:52 AM 84.9 °F 89.4 °F 70.0 °F 61% 29.83 in 10.0 mi West 9.2 mph - N/A   Clear
12:52 PM 84.0 °F 88.4 °F 70.0 °F 63% 29.83 in 10.0 mi West 10.4 mph - N/A   Clear
1:52 PM 86.0 °F 90.1 °F 69.1 °F 57% 29.83 in 10.0 mi West 18.4 mph 24.2 mph N/A   Clear
2:52 PM 84.9 °F 87.6 °F 66.9 °F 55% 29.82 in 10.0 mi West 17.3 mph 27.6 mph N/A   Clear
3:52 PM 84.9 °F 89.4 °F 70.0 °F 61% 29.81 in 10.0 mi West 19.6 mph 23.0 mph N/A   Clear
4:52 PM 84.9 °F 88.2 °F 68.0 °F 57% 29.79 in 10.0 mi West 18.4 mph 24.2 mph N/A   Clear
5:52 PM 82.9 °F 85.8 °F 68.0 °F 60% 29.78 in 10.0 mi WNW 13.8 mph 25.3 mph N/A   Clear
6:52 PM 82.0 °F 84.9 °F 68.0 °F 62% 29.77 in 10.0 mi WNW 15.0 mph 24.2 mph N/A   Clear
7:52 PM 80.1 °F 82.9 °F 69.1 °F 69% 29.77 in 10.0 mi NW 8.1 mph - N/A   Clear
8:52 PM 77.0 °F - 64.0 °F 64% 29.77 in 10.0 mi WNW 8.1 mph - N/A   Clear
9:52 PM 71.1 °F - 64.0 °F 78% 29.79 in 10.0 mi West 5.8 mph - N/A   Clear
10:52 PM 71.1 °F - 64.0 °F 78% 29.80 in 10.0 mi WNW 6.9 mph - N/A   Clear
11:52 PM 69.1 °F - 64.0 °F 84% 29.81 in 10.0 mi West 6.9 mph - N/A   Clear